Weather History for Orange, VA

Change the Weather History Date:

Tuesday, December 10, 2013

  Actual Average Record
Temperature  
Mean Temperature 36 °F -  
Max Temperature 41 °F 49 °F 72 °F (1991)
Min Temperature 30 °F 30 °F 13 °F (1960)
Degree Days  
Heating Degree Days 30    
Moisture  
Dew Point 35 °F    
Average Humidity 96    
Maximum Humidity 100    
Minimum Humidity 75    
Precipitation  
Precipitation 0.37 in - - ()
Sea Level Pressure  
Sea Level Pressure 30.09 in    
Wind  
Wind Speed 1 mph (SSW)    
Max Wind Speed 6 mph    
Max Gust Speed 23 mph    
Visibility 6 miles    
Events Fog , Rain , Snow    
Averages and records for this station are not official NWS values.
T = Trace of Precipitation, MM = Missing Value Source: NWS Daily Summary

Daily Weather History Graph

Daily Weather History Graph

Search for Another Location

Airport:

Trip Planner

Search our weather history database for the weather conditions in past years. The results will help you decide how hot, cold, wet, or windy it might be!

Date:

Astronomy

Dec. 10, 2013 Rise Set
Actual Time 7:18 AM EST 4:52 PM EST
Civil Twilight 6:48 AM EST 5:21 PM EST
Nautical Twilight 6:15 AM EST 5:54 PM EST
Astronomical Twilight 5:43 AM EST 6:26 PM EST
Moon 12:47 PM EST (12/10) 12:39 AM EST (12/10)
Length of Visible Light 10h 32m
Length of Day
9h 33m
First Quarter, 61% of the Moon is Illuminated
Dec 10
First Quarter
Dec 17
Full
Dec 25
Last Quarter
Jan 1
New
Jan 7
First Quarter

Hourly Weather History & Observations

Time (EST) Temp. Windchill Dew Point Humidity Pressure Visibility Wind Dir Wind Speed Gust Speed Precip Events Conditions
12:15 AM 37.4 °F - 37.4 °F 100% 30.08 in 0.2 mi Calm Calm - N/A Fog Fog
12:35 AM 35.6 °F - 35.6 °F 100% 30.08 in 0.2 mi Calm Calm - N/A Fog Fog
12:55 AM 35.6 °F - 35.6 °F 100% 30.07 in 0.2 mi Calm Calm - N/A Fog Fog
1:15 AM 35.6 °F 32.8 °F 35.6 °F 100% 30.05 in 0.2 mi North 3.5 mph - N/A Fog Fog
1:35 AM 35.6 °F - 35.6 °F 100% 30.05 in 0.2 mi Calm Calm - N/A Fog Fog
1:55 AM 35.6 °F - 35.6 °F 100% 30.06 in 0.5 mi Calm Calm - N/A Fog Fog
2:15 AM 35.6 °F - 35.6 °F 100% 30.05 in 0.5 mi Calm Calm - N/A Fog Fog
2:35 AM 35.6 °F - 35.6 °F 100% 30.06 in 0.2 mi Calm Calm - N/A Fog Fog
2:55 AM 35.6 °F 32.8 °F 35.6 °F 100% 30.06 in 0.5 mi NNW 3.5 mph - N/A Fog Fog
3:15 AM 35.6 °F - 35.6 °F 100% 30.08 in 1.2 mi Calm Calm - N/A   Overcast
3:35 AM 35.6 °F - 35.6 °F 100% 30.04 in 0.8 mi Calm Calm - N/A   Overcast
3:55 AM 35.6 °F - 35.6 °F 100% 30.03 in 0.8 mi Calm Calm - N/A   Overcast
4:15 AM 35.6 °F - 35.6 °F 100% 30.05 in 2.0 mi Calm Calm - N/A   Overcast
4:35 AM 35.6 °F - 35.6 °F 100% 30.05 in 5.0 mi Calm Calm - N/A   Overcast
5:35 AM 35.6 °F - 35.6 °F 100% 30.06 in 3.0 mi Calm Calm - N/A   Overcast
5:55 AM 35.6 °F 32.8 °F 35.6 °F 100% 30.02 in 2.0 mi NE 3.5 mph - N/A   Overcast
6:15 AM 35.6 °F - 35.6 °F 100% 30.04 in 2.0 mi Calm Calm - 0.02 in   Overcast
6:35 AM 35.6 °F - 35.6 °F 100% 30.05 in 2.5 mi Calm Calm - 0.03 in Snow Light Snow
6:55 AM 35.6 °F - 35.6 °F 100% 30.04 in 4.0 mi Calm Calm - 0.06 in Rain Light Rain
7:15 AM 35.6 °F - 35.6 °F 100% 30.01 in 3.0 mi Calm Calm - 0.01 in   Overcast
7:35 AM 35.6 °F - 35.6 °F 100% 30.01 in 3.0 mi Calm Calm - 0.05 in   Overcast
7:55 AM 35.6 °F - 35.6 °F 100% 30.04 in 5.0 mi Calm Calm - 0.07 in   Overcast
8:15 AM 35.6 °F - 35.6 °F 100% 30.02 in 2.5 mi Calm Calm - 0.03 in   Overcast
8:35 AM 35.6 °F - 35.6 °F 100% 30.03 in 2.5 mi Calm Calm - 0.05 in   Light Drizzle
8:55 AM 35.6 °F 32.8 °F 35.6 °F 100% 30.01 in 3.0 mi NE 3.5 mph - 0.06 in   Drizzle
9:15 AM 35.6 °F - 35.6 °F 100% 30.01 in 3.0 mi Calm Calm - 0.01 in   Drizzle
9:35 AM 35.6 °F - 35.6 °F 100% 30.01 in 2.5 mi Calm Calm - 0.03 in Snow Light Snow
9:55 AM 35.6 °F - 35.6 °F 100% 30.02 in 1.8 mi Calm Calm - 0.03 in Snow Light Snow
10:15 AM 35.6 °F - 35.6 °F 100% 30.01 in 1.5 mi Calm Calm - N/A Snow Light Snow
10:35 AM 35.6 °F - 35.6 °F 100% 30.02 in 1.2 mi Calm Calm - N/A Snow Light Snow
10:55 AM 35.6 °F - 35.6 °F 100% 30.02 in 1.8 mi Calm Calm - 0.01 in Snow Light Snow
11:15 AM 35.6 °F - 35.6 °F 100% 30.02 in 1.2 mi Calm Calm - N/A Snow Light Snow
11:35 AM 35.6 °F - 35.6 °F 100% 30.03 in 1.8 mi Calm Calm - N/A   Unknown
11:55 AM 35.6 °F - 35.6 °F 100% 30.03 in 3.0 mi Calm Calm - 0.03 in Snow Light Snow
12:15 PM 35.6 °F - 35.6 °F 100% 30.02 in 5.0 mi Calm Calm - 0.02 in Snow Light Snow
12:35 PM 37.4 °F 34.9 °F 37.4 °F 100% 30.03 in 10.0 mi NW 3.5 mph - 0.06 in   Overcast
12:55 PM 37.4 °F - 37.4 °F 100% 30.03 in 10.0 mi Calm Calm - 0.08 in   Overcast
1:15 PM 37.4 °F - 37.4 °F 100% 30.03 in 10.0 mi Calm Calm - 0.02 in   Overcast
1:35 PM 37.4 °F - 37.4 °F 100% 30.03 in 10.0 mi Calm Calm - 0.03 in   Overcast
1:55 PM 37.4 °F - 37.4 °F 100% 30.04 in 10.0 mi Calm Calm - 0.03 in   Overcast
2:15 PM 37.4 °F - 37.4 °F 100% 30.03 in 10.0 mi Calm Calm - N/A   Overcast
2:35 PM 39.2 °F - 39.2 °F 100% 30.05 in 10.0 mi Calm Calm - N/A   Overcast
2:55 PM 39.2 °F 37.0 °F 39.2 °F 100% 30.06 in 10.0 mi SSW 3.5 mph - N/A   Overcast
3:15 PM 39.2 °F 37.0 °F 39.2 °F 100% 30.06 in 10.0 mi South 3.5 mph - N/A   Overcast
3:35 PM 39.2 °F 37.0 °F 39.2 °F 100% 30.08 in 10.0 mi SW 3.5 mph - N/A   Mostly Cloudy
3:55 PM 41.0 °F 39.0 °F 41.0 °F 100% 30.09 in 10.0 mi South 3.5 mph - N/A   Scattered Clouds
4:15 PM 39.2 °F - 39.2 °F 100% 30.09 in 10.0 mi Calm Calm - N/A   Clear
4:35 PM 37.4 °F 34.9 °F 37.4 °F 100% 30.10 in 10.0 mi South 3.5 mph - N/A   Clear
4:55 PM 41.0 °F 39.0 °F 37.4 °F 87% 30.09 in 10.0 mi SSW 3.5 mph 23.0 mph N/A   Clear
5:15 PM 39.2 °F - 35.6 °F 87% 30.12 in 10.0 mi Calm Calm - N/A   Clear
5:35 PM 37.4 °F - 35.6 °F 93% 30.14 in 10.0 mi Calm Calm - N/A   Scattered Clouds
5:55 PM 39.2 °F 35.0 °F 33.8 °F 81% 30.16 in 10.0 mi SSW 5.8 mph - N/A   Scattered Clouds
6:15 PM 37.4 °F 32.8 °F 32.0 °F 81% 30.16 in 10.0 mi SSW 5.8 mph - N/A   Clear
6:35 PM 37.4 °F 33.8 °F 30.2 °F 75% 30.16 in 10.0 mi SSW 4.6 mph - N/A   Clear
6:55 PM 35.6 °F 31.7 °F 28.4 °F 75% 30.16 in 10.0 mi SW 4.6 mph - N/A   Clear
7:15 PM 35.6 °F - 30.2 °F 81% 30.17 in 10.0 mi Calm Calm - N/A   Clear
7:35 PM 33.8 °F 30.8 °F 30.2 °F 87% 30.18 in 10.0 mi South 3.5 mph - N/A   Clear
7:55 PM 33.8 °F 30.8 °F 30.2 °F 87% 30.18 in 10.0 mi SSW 3.5 mph - N/A   Clear
8:15 PM 32.0 °F - 28.4 °F 87% 30.19 in 10.0 mi Calm Calm - N/A   Clear
8:35 PM 32.0 °F 28.7 °F 30.2 °F 93% 30.19 in 10.0 mi SSE 3.5 mph - N/A   Clear
8:55 PM 32.0 °F 28.7 °F 30.2 °F 93% 30.19 in 10.0 mi SSE 3.5 mph - N/A   Clear
9:15 PM 32.0 °F 27.5 °F 28.4 °F 87% 30.20 in 10.0 mi SSW 4.6 mph - N/A   Clear
9:35 PM 32.0 °F 27.5 °F 28.4 °F 87% 30.21 in 10.0 mi SSW 4.6 mph - N/A   Clear
9:55 PM 32.0 °F 28.7 °F 30.2 °F 93% 30.21 in 10.0 mi SSW 3.5 mph - N/A   Clear
10:15 PM 32.0 °F - 30.2 °F 93% 30.22 in 10.0 mi Calm Calm - N/A   Clear
10:35 PM 32.0 °F 28.7 °F 28.4 °F 87% 30.23 in 10.0 mi South 3.5 mph - N/A   Clear
10:55 PM 30.2 °F 26.7 °F 26.6 °F 86% 30.23 in 10.0 mi SW 3.5 mph - N/A   Clear
11:15 PM 30.2 °F 26.7 °F 28.4 °F 93% 30.23 in 10.0 mi SSW 3.5 mph - N/A   Clear
11:35 PM 30.2 °F 26.7 °F 30.2 °F 100% 30.24 in 10.0 mi SSE 3.5 mph - N/A   Clear
11:55 PM 30.2 °F - 28.4 °F 93% 30.25 in 10.0 mi Calm Calm - N/A   Clear